Minot, ND

4:53 PM CDT on July 20, 2017 (GMT -0500)
Minot International

Weather History for KMOT - October, 2013

Change the Weather History Date:

Thursday, October 10, 2013

  Actual Average Record
Temperature  
Mean Temperature 51 °F 47 °F  
Max Temperature 66 °F 58 °F 86 °F (1942)
Min Temperature 36 °F 36 °F 3 °F (1919)
Degree Days  
Heating Degree Days 14 18  
Month to date heating degree days 149 159  
Since 1 July heating degree days 340 479  
Cooling Degree Days 0 0  
Month to date cooling degree days 0 0  
Year to date cooling degree days 421 444  
Moisture  
Dew Point 41 °F    
Average Humidity 68    
Maximum Humidity 92    
Minimum Humidity 44    
Precipitation  
Precipitation 0.00 in 0.04 in 0.75 in (1923)
Month to date precipitation T 0.44  
Year to date precipitation 22.34 15.34  
Sea Level Pressure  
Sea Level Pressure 29.84 in    
Wind  
Wind Speed 4 mph (ENE)    
Max Wind Speed 12 mph    
Max Gust Speed 15 mph    
Visibility 9 miles    
Events      
T = Trace of Precipitation, MM = Missing Value Source: NWS Daily Summary

Daily Weather History Graph

Daily Weather History Graph

Search for Another Location

Airport or City:

Trip Planner

Search our weather history database for the weather conditions in past years. The results will help you decide how hot, cold, wet, or windy it might be!

Date:

Astronomy

Oct. 10, 2013 Rise Set
Actual Time 7:57 AM CDT 7:05 PM CDT
Civil Twilight 7:26 AM CDT 7:36 PM CDT
Nautical Twilight 6:50 AM CDT 8:12 PM CDT
Astronomical Twilight 6:14 AM CDT 8:48 PM CDT
Moon 2:08 PM CDT (10/10) 11:28 PM CDT (10/10)
Length of Visible Light 12h 10m
Length of Day
11h 07m
Waxing Crescent, 36% of the Moon is Illuminated
Oct 10
Waxing Crescent
Oct 11
First Quarter
Oct 18
Full
Oct 26
Last Quarter
Nov 3
New

Hourly Weather History & Observations

Time (CDT) Temp. Windchill Dew Point Humidity Pressure Visibility Wind Dir Wind Speed Gust Speed Precip Events Conditions
12:54 AM 46.0 °F 43.9 °F 41.0 °F 83% 30.01 in 10.0 mi SSW 4.6 mph - N/A   Overcast
1:54 AM 46.9 °F - 39.9 °F 77% 30.00 in 10.0 mi WNW 3.5 mph - N/A   Overcast
2:54 AM 46.0 °F - 39.9 °F 79% 29.98 in 10.0 mi Calm Calm - N/A   Mostly Cloudy
3:54 AM 43.0 °F 41.3 °F 37.9 °F 82% 29.97 in 10.0 mi NW 3.5 mph - N/A   Scattered Clouds
4:54 AM 42.1 °F 39.2 °F 37.9 °F 85% 29.95 in 10.0 mi NNE 4.6 mph - N/A   Scattered Clouds
5:24 AM 42.8 °F - 37.4 °F 81% 29.91 in 1.8 mi Calm Calm - N/A   Haze
5:37 AM 42.8 °F - 37.4 °F 81% 29.92 in 3.0 mi Calm Calm - N/A   Haze
5:54 AM 43.0 °F - 37.9 °F 82% 29.94 in 10.0 mi Calm Calm - N/A   Mostly Cloudy
6:54 AM 39.0 °F - 35.1 °F 86% 29.94 in 10.0 mi Calm Calm - N/A   Clear
7:54 AM 36.0 °F - 34.0 °F 93% 29.94 in 10.0 mi Calm Calm - N/A   Clear
8:54 AM 42.1 °F - 39.0 °F 89% 29.92 in 10.0 mi Calm Calm - N/A   Clear
9:54 AM 48.0 °F - 39.9 °F 74% 29.91 in 10.0 mi ENE 3.5 mph - N/A   Clear
10:54 AM 51.1 °F - 39.9 °F 66% 29.89 in 10.0 mi ESE 4.6 mph - N/A   Clear
11:54 AM 55.9 °F - 41.0 °F 57% 29.85 in 10.0 mi East 6.9 mph - N/A   Clear
12:54 PM 59.0 °F - 41.0 °F 51% 29.83 in 10.0 mi East 10.4 mph - N/A   Clear
1:54 PM 62.1 °F - 41.0 °F 46% 29.79 in 10.0 mi ESE 10.4 mph - N/A   Clear
2:54 PM 63.0 °F - 41.0 °F 45% 29.77 in 10.0 mi ESE 6.9 mph - N/A   Clear
3:54 PM 64.9 °F - 42.1 °F 43% 29.74 in 10.0 mi East 5.8 mph - N/A   Clear
4:54 PM 64.9 °F - 43.0 °F 45% 29.73 in 10.0 mi East 8.1 mph - N/A   Clear
5:54 PM 63.0 °F - 46.9 °F 56% 29.73 in 10.0 mi East 3.5 mph - N/A   Clear
6:54 PM 59.0 °F - 46.0 °F 62% 29.72 in 10.0 mi NE 3.5 mph - N/A   Clear
7:54 PM 57.9 °F - 46.0 °F 65% 29.71 in 10.0 mi East 5.8 mph - N/A   Scattered Clouds
8:54 PM 55.0 °F - 46.9 °F 74% 29.69 in 10.0 mi North 5.8 mph - N/A   Mostly Cloudy
9:54 PM 55.0 °F - 46.9 °F 74% 29.68 in 10.0 mi Calm Calm - N/A   Partly Cloudy
10:54 PM 54.0 °F - 46.9 °F 77% 29.70 in 10.0 mi Calm Calm - N/A   Mostly Cloudy
11:54 PM 52.0 °F - 46.9 °F 83% 29.67 in 10.0 mi North 5.8 mph - N/A   Overcast